Flag for Canada Weather past 2 weeks in Igloolik, Nunavut Territory, Canada

Now
1 °F

Light snow. Scattered clouds.


Feels Like: -15 °F
Forecast: -10 / 8 °F
Wind: 12 mph from North

Location: Hall Beach


UV Index: 0 (Low)

Visibility: 10 mi


Pressure: 30.10 "Hg

Humidity: 78%

Dew point: -4 °F

Location of IgloolikLocation

Historic Weather in Igloolik

°F

Igloolik temperature yesterday

Maximum temperature yesterday: 14 °F (at 7:00 PM)
Minimum temperature yesterday: -8 °F (at 2:00 AM)
Average temperature yesterday: 2 °F

Past Weeks' High & Low Weather Summary

 TemperatureHumidityPressure
High14 °F (Apr 20, 7:00 PM)92% (Apr 6, 8:00 PM)30.16 "Hg (Apr 6, 8:00 PM)
Low-22 °F (Apr 15, 2:00 AM)68% (Apr 15, 5:00 AM)29.12 "Hg (Apr 11, 4:00 AM)
Average0 °F82%29.76 "Hg
* Reported Apr 6 10:00 AM — Apr 21 10:00 AM, Igloolik, Weather by CustomWeather, © 2014

Note: Actual official high and low records may vary slightly from our data, if they occured in-between our weather recording intervals... More about our weather records

Advertising

Historic Weather Conditions — Data for Previous 24 hours

 ConditionsComfort  
Time TempWeatherWind HumidityBarometerVisibility
10:00 AM
Apr 21
3 °FLight snow. Overcast.14 mph78%30.09 "Hg3 mi
9:00 AM3 °FLight snow. Overcast.12 mph85%30.08 "Hg4 mi
8:00 AM3 °FLight snow. Overcast.12 mph85%30.08 "Hg5 mi
7:00 AM3 °FLight snow. Overcast.9 mph85%30.07 "Hg7 mi
6:50 AM3 °FLight snow. Overcast.10 mph85%30.07 "Hg6 mi
6:00 AM3 °FLight snow. Overcast.12 mph85%30.06 "Hg4 mi
5:56 AM3 °FLight snow. Overcast.12 mph85%30.06 "Hg5 mi
5:00 AM3 °FLight snow. More clouds than sun.12 mph85%30.06 "Hg9 mi
4:00 AM3 °FLight snow. Overcast.10 mph85%30.05 "Hg5 mi
3:57 AM3 °FLight snow. Overcast.10 mph85%30.05 "Hg5 mi
3:00 AM5 °FLight snow. Overcast.9 mph85%30.04 "Hg5 mi
2:55 AM5 °FLight snow. Mostly cloudy.9 mph85%30.04 "Hg5 mi
2:00 AM3 °FLight snow. Mostly cloudy.10 mph92%30.04 "Hg8 mi
1:00 AM3 °FLight snow. Overcast.10 mph85%30.03 "Hg9 mi
12:00 AM0 °FLight snow. Overcast.9 mph84%30.03 "Hg6 mi
11:00 PM
Apr 20
-4 °FLight snow. Passing clouds.12 mph84%30.03 "Hg9 mi
10:00 PM0 °FLight snow. Passing clouds.12 mph92%30.03 "Hg9 mi
9:00 PM3 °FLight snow. Passing clouds.10 mph85%30.02 "Hg9 mi
8:00 PM10 °FLight snow. Partly sunny.8 mph85%30.02 "Hg7 mi
7:00 PM14 °FLight snow. Overcast.6 mph85%30.01 "Hg4 mi
6:00 PM12 °FLight snow. Mostly cloudy.5 mph85%30.01 "Hg4 mi
5:00 PM12 °FLight snow. Partly sunny.6 mph85%30.01 "Hg12 mi
4:00 PM12 °FLight snow. Partly sunny.6 mph85%30.00 "Hg12 mi
3:00 PM12 °FLight snow. Partly sunny.5 mph85%30.00 "Hg9 mi
2:00 PM12 °FLight snow. Mostly cloudy.5 mph85%29.99 "Hg10 mi
1:00 PM9 °FLight snow. Partly sunny.6 mph92%29.99 "Hg15 mi
12:00 PM7 °FLight snow. Partly sunny.6 mph85%29.98 "Hg15 mi
11:00 AM5 °FLight snow. Partly sunny.6 mph92%29.98 "Hg15 mi
Weather by CustomWeather, © 2014

See weather overview